QPF
0.00 0.01 0.00 0.00 0.00 0.00 0.00 0.00 0.00 0.00 0.00 0.00 0.00 0.00 0.00 0.00 0.00 0.00 0.00 0.00 0.00 0.00 0.00 0.00 0.00 0.00 0.00 0.00 0.00 0.00 0.00 0.00 0.00 0.00 0.00 0.00 0.00 0.00 0.00 0.00 0.00 0.00 0.01 0.00
0.00 0.00 0.01 0.00 0.00 0.00 0.00 0.00 0.00 0.00 0.00 0.00 0.00 0.00 0.00 0.00 0.00 0.00 0.00 0.00 0.00 0.00 0.00 0.00 0.00 0.00 0.00 0.00 0.00 0.00 0.00 0.00 0.00 0.00 0.00 0.00 0.00 0.00 0.00 0.00 0.00 0.00 0.00 0.01
0.00 0.00 0.00 0.00 0.00 0.00 0.00 0.00 0.00 0.00 0.00 0.00 0.00 0.00 0.00 0.00 0.00 0.00 0.00 0.00 0.00 0.00 0.00 0.00 0.00 0.00 0.00 0.00 0.00 0.00 0.00 0.00 0.00 0.00 0.00 0.00 0.00 0.00 0.00 0.00 0.00 0.00 0.00 0.00
0.00 0.00 0.00 0.00 0.00 0.00 0.00 0.00 0.00 0.00 0.00 0.00 0.00 0.00 0.00 0.00 0.00 0.00 0.00 0.00 0.00 0.00 0.00 0.00 0.00 0.00 0.00 0.00 0.00 0.00 0.00 0.00 0.00 0.00 0.00 0.00 0.00 0.00 0.00 0.00 0.00 0.00 0.00 0.01
0.00 0.00 0.00 0.00 0.00 0.00 0.00 0.00 0.00 0.00 0.00 0.00 0.00 0.00 0.00 0.00 0.00 0.00 0.00 0.00 0.00 0.00 0.00 0.00 0.00 0.00 0.00 0.00 0.00 0.00 0.00 0.00 0.00 0.00 0.00 0.00 0.00 0.00 0.00 0.00 0.00 0.00 0.00 0.00
0.00 0.00 0.00 0.00 0.00 0.00 0.00 0.00 0.00 0.00 0.00 0.00 0.00 0.00 0.00 0.00 0.00 0.00 0.00 0.00 0.00 0.00 0.00 0.00 0.00 0.00 0.00 0.00 0.00 0.00 0.00 0.00 0.00 0.00 0.00 0.00 0.00 0.00 0.00 0.00 0.00 0.00 0.00 0.00
0.00 0.00 0.00 0.00 0.00 0.00 0.00 0.00 0.00 0.00 0.00 0.00 0.00 0.00 0.00 0.00 0.00 0.00 0.00 0.00 0.00 0.00 0.00 0.00 0.00 0.00 0.00 0.00 0.00 0.00 0.00 0.00 0.00 0.00 0.00 0.00 0.00 0.00 0.00 0.00 0.00 0.00 0.00 0.00
0.00 0.00 0.00 0.00 0.00 0.00 0.00 0.00 0.00 0.00 0.00 0.00 0.00 0.00 0.00 0.00 0.00 0.00 0.00 0.00 0.00 0.00 0.00 0.00 0.00 0.00 0.00 0.00 0.00 0.00 0.00 0.00 0.00 0.00 0.00 0.00 0.00 0.00 0.00 0.00 0.00 0.00 0.00 0.00
0.00 0.00 0.00 0.00 0.00 0.00 0.00 0.00 0.00 0.00 0.00 0.00 0.00 0.00 0.00 0.00 0.00 0.00 0.00 0.00 0.00 0.00 0.00 0.00 0.00 0.00 0.00 0.00 0.00 0.00 0.00 0.00 0.00 0.00 0.00 0.00 0.00 0.00 0.00 0.00 0.00 0.00 0.00 0.00
0.00 0.00 0.00 0.00 0.00 0.00 0.00 0.00 0.00 0.00 0.00 0.00 0.00 0.00 0.00 0.00 0.00 0.00 0.00 0.00 0.00 0.00 0.00 0.00 0.00 0.00 0.00 0.00 0.00 0.00 0.00 0.00 0.00 0.00 0.00 0.00 0.00 0.00 0.00 0.00 0.00 0.00 0.00 0.00
0.00 0.00 0.00 0.00 0.00 0.00 0.00 0.00 0.00 0.00 0.00 0.00 0.00 0.00 0.00 0.00 0.00 0.00 0.00 0.00 0.00 0.00 0.00 0.00 0.00 0.00 0.00 0.00 0.00 0.00 0.00 0.00 0.00 0.00 0.00 0.00 0.00 0.00 0.00 0.00 0.00 0.00 0.00 0.00
0.00 0.00 0.00 0.00 0.00 0.00 0.00 0.00 0.00 0.00 0.00 0.00 0.00 0.00 0.00 0.00 0.00 0.00 0.00 0.00 0.00 0.00 0.00 0.00 0.00 0.00 0.00 0.00 0.00 0.00 0.00 0.00 0.00 0.00 0.00 0.00 0.00 0.00 0.00 0.00 0.00 0.00 0.00 0.00
0.00 0.00 0.00 0.00 0.00 0.00 0.00 0.00 0.00 0.00 0.00 0.00 0.00 0.00 0.00 0.00 0.00 0.00 0.00 0.00 0.00 0.00 0.00 0.00 0.00 0.00 0.00 0.00 0.00 0.00 0.00 0.00 0.00 0.00 0.00 0.00 0.00 0.00 0.00 0.00 0.00 0.00 0.00 0.00
0.00 0.00 0.00 0.00 0.00 0.00 0.00 0.00 0.00 0.00 0.00 0.00 0.00 0.00 0.00 0.00 0.00 0.00 0.00 0.00 0.00 0.00 0.00 0.00 0.00 0.00 0.00 0.00 0.00 0.00 0.00 0.00 0.00 0.00 0.00 0.00 0.00 0.00 0.00 0.00 0.00 0.00 0.00 0.00
0.00 0.00 0.00 0.00 0.00 0.00 0.00 0.00 0.00 0.00 0.00 0.00 0.00 0.00 0.00 0.00 0.00 0.00 0.00 0.00 0.00 0.00 0.00 0.00 0.00 0.00 0.00 0.00 0.00 0.00 0.00 0.00 0.00 0.00 0.00 0.00 0.00 0.00 0.00 0.00 0.00 0.00 0.00 0.00
0.00 0.00 0.00 0.00 0.00 0.00 0.00 0.00 0.00 0.00 0.00 0.00 0.00 0.00 0.00 0.00 0.00 0.00 0.00 0.00 0.00 0.00 0.00 0.00 0.00 0.00 0.00 0.00 0.00 0.00 0.00 0.00 0.00 0.00 0.00 0.00 0.00 0.00 0.00 0.00 0.00 0.00 0.00 0.00
0.00 0.00 0.00 0.00 0.00 0.00 0.00 0.00 0.00 0.00 0.00 0.00 0.00 0.00 0.00 0.00 0.00 0.00 0.00 0.00 0.00 0.00 0.00 0.00 0.00 0.00 0.00 0.00 0.00 0.00 0.00 0.00 0.00 0.00 0.00 0.00 0.00 0.00 0.00 0.00 0.00 0.00 0.00 0.00
0.00 0.00 0.00 0.00 0.00 0.00 0.00 0.00 0.00 0.00 0.00 0.00 0.00 0.00 0.00 0.00 0.00 0.00 0.00 0.00 0.00 0.00 0.00 0.00 0.00 0.00 0.00 0.00 0.00 0.00 0.00 0.00 0.00 0.00 0.00 0.00 0.00 0.00 0.00 0.00 0.00 0.00 0.00 0.00
0.01 0.01 0.01 0.00 0.00 0.00 0.00 0.00 0.00 0.00 0.00 0.00 0.00 0.00 0.00 0.00 0.00 0.00 0.00 0.00 0.00 0.00 0.00 0.00 0.00 0.00 0.00 0.00 0.00 0.00 0.00 0.00 0.00 0.00 0.00 0.00 0.00 0.00 0.00 0.00 0.00 0.00 0.00 0.00
0.02 0.01 0.01 0.01 0.00 0.00 0.00 0.00 0.00 0.00 0.00 0.00 0.00 0.00 0.00 0.00 0.00 0.00 0.00 0.00 0.00 0.00 0.00 0.00 0.00 0.00 0.00 0.00 0.00 0.00 0.00 0.00 0.00 0.00 0.00 0.00 0.00 0.00 0.00 0.00 0.00 0.00 0.00 0.00
0.01 0.01 0.00 0.00 0.00 0.00 0.00 0.00 0.00 0.00 0.00 0.00 0.00 0.00 0.00 0.00 0.00 0.00 0.00 0.00 0.00 0.00 0.00 0.00 0.00 0.00 0.00 0.00 0.00 0.00 0.00 0.00 0.00 0.00 0.00 0.00 0.00 0.00 0.00 0.00 0.00 0.00 0.00 0.00
0.01 0.01 0.00 0.00 0.00 0.00 0.00 0.00 0.00 0.00 0.00 0.00 0.00 0.00 0.00 0.00 0.00 0.00 0.00 0.00 0.00 0.00 0.00 0.00 0.00 0.00 0.00 0.00 0.00 0.00 0.00 0.00 0.00 0.00 0.00 0.00 0.00 0.00 0.00 0.00 0.00 0.00 0.00 0.00
0.00 0.00 0.01 0.00 0.00 0.00 0.00 0.00 0.00 0.00 0.00 0.01 0.01 0.01 0.01 0.01 0.01 0.01 0.01 0.01 0.00 0.00 0.00 0.01 0.01 0.00 0.00 0.00 0.00 0.00 0.00 0.00 0.00 0.00 0.00 0.00 0.00 0.00 0.00 0.00 0.00 0.00 0.00 0.00
0.00 0.00 0.00 0.01 0.01 0.00 0.00 0.01 0.01 0.01 0.01 0.01 0.01 0.01 0.01 0.01 0.01 0.01 0.01 0.01 0.01 0.01 0.01 0.01 0.01 0.01 0.01 0.00 0.00 0.00 0.00 0.00 0.00 0.00 0.00 0.00 0.00 0.00 0.00 0.00 0.00 0.00 0.00 0.00
0.00 0.00 0.00 0.01 0.01 0.01 0.01 0.01 0.01 0.00 0.00 0.00 0.01 0.01 0.01 0.01 0.02 0.02 0.01 0.01 0.01 0.01 0.02 0.02 0.03 0.03 0.03 0.02 0.02 0.01 0.01 0.01 0.01 0.00 0.00 0.00 0.00 0.00 0.00 0.00 0.00 0.00 0.00 0.00
0.00 0.00 0.00 0.01 0.01 0.02 0.02 0.02 0.02 0.01 0.01 0.00 0.00 0.00 0.00 0.01 0.01 0.01 0.01 0.01 0.01 0.01 0.01 0.01 0.01 0.02 0.02 0.01 0.01 0.01 0.01 0.01 0.01 0.00 0.00 0.00 0.00 0.00 0.00 0.00 0.00 0.00 0.00 0.00
0.00 0.00 0.00 0.01 0.01 0.02 0.02 0.02 0.02 0.02 0.02 0.02 0.01 0.01 0.01 0.01 0.01 0.01 0.01 0.00 0.00 0.00 0.00 0.00 0.00 0.01 0.01 0.01 0.01 0.01 0.01 0.00 0.00 0.00 0.00 0.00 0.00 0.00 0.00 0.00 0.00 0.00 0.00 0.00
MSLP
1013.10 1013.17 1013.27 1013.36 1013.42 1013.41 1013.29 1013.05 1012.65 1012.12 1011.47 1010.75 1010.02 1009.34 1008.77 1008.35 1008.11 1008.06 1008.18 1008.43 1008.77 1009.17 1009.58 1009.99 1010.38 1010.77 1011.14 1011.52 1011.92 1012.32 1012.72 1013.10 1013.45 1013.73 1013.93 1014.04 1014.06 1014.01 1013.89 1013.74 1013.58 1013.42 1013.27 1013.15
1013.26 1013.29 1013.30 1013.27 1013.18 1013.02 1012.77 1012.41 1011.95 1011.39 1010.77 1010.10 1009.45 1008.85 1008.35 1007.99 1007.78 1007.73 1007.81 1008.02 1008.32 1008.68 1009.07 1009.48 1009.90 1010.32 1010.76 1011.20 1011.65 1012.11 1012.55 1012.97 1013.33 1013.62 1013.83 1013.94 1013.96 1013.91 1013.79 1013.64 1013.48 1013.31 1013.17 1013.05
1013.46 1013.43 1013.34 1013.19 1012.96 1012.65 1012.27 1011.81 1011.29 1010.72 1010.12 1009.52 1008.95 1008.44 1008.02 1007.71 1007.52 1007.46 1007.51 1007.67 1007.91 1008.21 1008.56 1008.96 1009.38 1009.82 1010.30 1010.79 1011.29 1011.79 1012.27 1012.71 1013.09 1013.39 1013.61 1013.72 1013.75 1013.70 1013.58 1013.43 1013.27 1013.10 1012.96 1012.84
1013.64 1013.54 1013.36 1013.08 1012.73 1012.30 1011.81 1011.28 1010.72 1010.14 1009.58 1009.05 1008.56 1008.14 1007.79 1007.53 1007.36 1007.29 1007.30 1007.40 1007.57 1007.81 1008.11 1008.46 1008.87 1009.32 1009.81 1010.32 1010.85 1011.37 1011.87 1012.32 1012.71 1013.02 1013.24 1013.37 1013.40 1013.35 1013.25 1013.10 1012.94 1012.77 1012.63 1012.50
1013.74 1013.56 1013.29 1012.91 1012.46 1011.94 1011.38 1010.81 1010.24 1009.69 1009.17 1008.70 1008.29 1007.94 1007.66 1007.44 1007.28 1007.20 1007.17 1007.21 1007.32 1007.50 1007.74 1008.05 1008.42 1008.85 1009.33 1009.84 1010.37 1010.89 1011.39 1011.84 1012.22 1012.54 1012.76 1012.89 1012.93 1012.90 1012.81 1012.68 1012.52 1012.36 1012.21 1012.08
1013.67 1013.41 1013.06 1012.62 1012.11 1011.55 1010.98 1010.40 1009.85 1009.34 1008.88 1008.47 1008.13 1007.84 1007.60 1007.41 1007.26 1007.16 1007.10 1007.10 1007.15 1007.28 1007.47 1007.74 1008.07 1008.47 1008.92 1009.41 1009.91 1010.41 1010.88 1011.31 1011.68 1011.98 1012.20 1012.34 1012.40 1012.39 1012.33 1012.21 1012.07 1011.92 1011.76 1011.63
1013.36 1013.03 1012.63 1012.17 1011.66 1011.11 1010.56 1010.02 1009.52 1009.06 1008.66 1008.32 1008.03 1007.78 1007.57 1007.38 1007.23 1007.12 1007.03 1007.00 1007.02 1007.11 1007.27 1007.50 1007.81 1008.18 1008.60 1009.05 1009.51 1009.97 1010.40 1010.80 1011.14 1011.43 1011.65 1011.80 1011.88 1011.90 1011.86 1011.78 1011.66 1011.51 1011.36 1011.21
1012.78 1012.40 1011.99 1011.54 1011.07 1010.59 1010.11 1009.65 1009.22 1008.83 1008.49 1008.18 1007.92 1007.68 1007.47 1007.29 1007.12 1006.99 1006.89 1006.85 1006.86 1006.94 1007.09 1007.32 1007.61 1007.96 1008.35 1008.76 1009.18 1009.60 1009.99 1010.34 1010.66 1010.92 1011.14 1011.30 1011.41 1011.47 1011.48 1011.43 1011.34 1011.22 1011.07 1010.91
1011.96 1011.56 1011.17 1010.78 1010.39 1010.01 1009.63 1009.26 1008.92 1008.59 1008.29 1008.00 1007.74 1007.49 1007.25 1007.04 1006.85 1006.70 1006.60 1006.56 1006.58 1006.68 1006.86 1007.10 1007.41 1007.75 1008.13 1008.52 1008.91 1009.28 1009.63 1009.95 1010.24 1010.50 1010.72 1010.90 1011.05 1011.16 1011.21 1011.22 1011.17 1011.08 1010.94 1010.78
1011.00 1010.61 1010.27 1009.97 1009.68 1009.41 1009.14 1008.87 1008.60 1008.31 1008.02 1007.73 1007.43 1007.14 1006.86 1006.60 1006.38 1006.21 1006.11 1006.09 1006.14 1006.29 1006.51 1006.80 1007.14 1007.51 1007.89 1008.28 1008.65 1009.00 1009.32 1009.61 1009.89 1010.15 1010.38 1010.60 1010.80 1010.96 1011.08 1011.14 1011.15 1011.09 1010.98 1010.82
1010.04 1009.69 1009.42 1009.20 1009.02 1008.86 1008.69 1008.49 1008.26 1008.00 1007.69 1007.35 1006.99 1006.63 1006.28 1005.96 1005.70 1005.51 1005.41 1005.41 1005.52 1005.72 1006.00 1006.35 1006.74 1007.16 1007.57 1007.97 1008.34 1008.69 1009.00 1009.30 1009.58 1009.85 1010.12 1010.38 1010.63 1010.86 1011.04 1011.18 1011.24 1011.24 1011.16 1011.02
1009.27 1008.97 1008.76 1008.62 1008.53 1008.44 1008.33 1008.17 1007.95 1007.66 1007.30 1006.90 1006.45 1005.99 1005.56 1005.17 1004.86 1004.65 1004.56 1004.59 1004.74 1005.00 1005.35 1005.77 1006.22 1006.69 1007.14 1007.57 1007.96 1008.32 1008.65 1008.97 1009.27 1009.58 1009.89 1010.20 1010.52 1010.81 1011.07 1011.27 1011.40 1011.45 1011.42 1011.32
1008.80 1008.55 1008.40 1008.32 1008.27 1008.22 1008.12 1007.95 1007.70 1007.35 1006.92 1006.42 1005.87 1005.32 1004.80 1004.35 1003.99 1003.76 1003.67 1003.72 1003.91 1004.22 1004.63 1005.11 1005.62 1006.13 1006.63 1007.10 1007.52 1007.91 1008.27 1008.62 1008.96 1009.31 1009.67 1010.04 1010.42 1010.78 1011.10 1011.37 1011.57 1011.68 1011.70 1011.64
1008.70 1008.49 1008.38 1008.32 1008.28 1008.21 1008.08 1007.86 1007.54 1007.11 1006.59 1005.99 1005.36 1004.72 1004.13 1003.62 1003.23 1002.98 1002.88 1002.95 1003.17 1003.52 1003.96 1004.48 1005.02 1005.58 1006.11 1006.61 1007.07 1007.49 1007.89 1008.27 1008.66 1009.05 1009.47 1009.89 1010.32 1010.74 1011.12 1011.45 1011.70 1011.87 1011.95 1011.94
1008.93 1008.76 1008.66 1008.60 1008.52 1008.40 1008.21 1007.91 1007.50 1006.98 1006.37 1005.69 1004.98 1004.29 1003.65 1003.11 1002.70 1002.44 1002.35 1002.42 1002.65 1003.01 1003.47 1003.99 1004.55 1005.12 1005.67 1006.19 1006.67 1007.12 1007.55 1007.98 1008.40 1008.84 1009.30 1009.77 1010.24 1010.70 1011.12 1011.49 1011.79 1012.01 1012.14 1012.19
1009.39 1009.26 1009.15 1009.05 1008.92 1008.73 1008.44 1008.05 1007.56 1006.96 1006.28 1005.55 1004.81 1004.09 1003.44 1002.90 1002.50 1002.25 1002.16 1002.24 1002.46 1002.81 1003.25 1003.76 1004.31 1004.86 1005.40 1005.92 1006.42 1006.89 1007.34 1007.80 1008.25 1008.72 1009.21 1009.71 1010.20 1010.68 1011.13 1011.52 1011.85 1012.11 1012.28 1012.38
1009.93 1009.82 1009.70 1009.56 1009.36 1009.09 1008.72 1008.25 1007.68 1007.03 1006.32 1005.58 1004.84 1004.15 1003.53 1003.03 1002.65 1002.43 1002.35 1002.43 1002.64 1002.96 1003.37 1003.84 1004.34 1004.86 1005.38 1005.88 1006.37 1006.84 1007.31 1007.78 1008.25 1008.74 1009.23 1009.74 1010.23 1010.71 1011.16 1011.56 1011.90 1012.18 1012.39 1012.54
1010.38 1010.30 1010.17 1009.99 1009.73 1009.39 1008.95 1008.42 1007.82 1007.16 1006.45 1005.74 1005.06 1004.43 1003.89 1003.45 1003.13 1002.94 1002.89 1002.96 1003.15 1003.44 1003.80 1004.21 1004.66 1005.13 1005.60 1006.07 1006.54 1007.00 1007.47 1007.93 1008.41 1008.89 1009.38 1009.87 1010.36 1010.82 1011.25 1011.64 1011.98 1012.27 1012.51 1012.69
1010.63 1010.57 1010.44 1010.23 1009.93 1009.54 1009.07 1008.52 1007.92 1007.28 1006.62 1005.99 1005.39 1004.86 1004.41 1004.06 1003.82 1003.68 1003.66 1003.73 1003.90 1004.15 1004.45 1004.81 1005.19 1005.60 1006.03 1006.46 1006.90 1007.34 1007.79 1008.25 1008.71 1009.18 1009.65 1010.11 1010.56 1011.00 1011.40 1011.78 1012.11 1012.40 1012.65 1012.86
1010.62 1010.59 1010.46 1010.24 1009.92 1009.52 1009.04 1008.50 1007.93 1007.34 1006.77 1006.23 1005.74 1005.32 1004.98 1004.73 1004.56 1004.49 1004.49 1004.57 1004.73 1004.94 1005.20 1005.50 1005.83 1006.18 1006.56 1006.96 1007.36 1007.78 1008.21 1008.65 1009.09 1009.53 1009.97 1010.40 1010.82 1011.21 1011.59 1011.94 1012.26 1012.55 1012.81 1013.04
1010.40 1010.38 1010.26 1010.04 1009.72 1009.32 1008.86 1008.36 1007.84 1007.33 1006.85 1006.41 1006.03 1005.72 1005.49 1005.32 1005.23 1005.20 1005.23 1005.33 1005.47 1005.65 1005.88 1006.13 1006.42 1006.74 1007.09 1007.45 1007.83 1008.23 1008.63 1009.05 1009.46 1009.87 1010.27 1010.67 1011.05 1011.41 1011.76 1012.09 1012.40 1012.70 1012.97 1013.22
1010.03 1010.02 1009.91 1009.69 1009.38 1008.99 1008.56 1008.11 1007.65 1007.21 1006.82 1006.47 1006.19 1005.97 1005.82 1005.73 1005.69 1005.70 1005.76 1005.86 1006.00 1006.17 1006.37 1006.61 1006.88 1007.17 1007.50 1007.84 1008.21 1008.59 1008.97 1009.36 1009.75 1010.13 1010.50 1010.86 1011.21 1011.54 1011.87 1012.19 1012.50 1012.80 1013.09 1013.37
1009.62 1009.60 1009.48 1009.26 1008.96 1008.60 1008.19 1007.78 1007.38 1007.01 1006.68 1006.40 1006.19 1006.04 1005.94 1005.89 1005.89 1005.93 1006.00 1006.11 1006.25 1006.42 1006.62 1006.85 1007.11 1007.41 1007.73 1008.07 1008.43 1008.79 1009.17 1009.53 1009.90 1010.25 1010.58 1010.92 1011.24 1011.56 1011.87 1012.19 1012.51 1012.83 1013.14 1013.45
1009.23 1009.18 1009.04 1008.82 1008.51 1008.17 1007.79 1007.41 1007.05 1006.72 1006.43 1006.20 1006.03 1005.91 1005.83 1005.81 1005.82 1005.87 1005.95 1006.06 1006.21 1006.38 1006.59 1006.84 1007.12 1007.42 1007.76 1008.10 1008.46 1008.83 1009.19 1009.54 1009.88 1010.20 1010.52 1010.82 1011.13 1011.44 1011.75 1012.07 1012.41 1012.75 1013.10 1013.44
1008.89 1008.80 1008.62 1008.38 1008.07 1007.73 1007.37 1007.01 1006.67 1006.37 1006.10 1005.89 1005.73 1005.61 1005.54 1005.51 1005.52 1005.57 1005.65 1005.77 1005.92 1006.12 1006.35 1006.62 1006.92 1007.25 1007.61 1007.97 1008.34 1008.70 1009.06 1009.39 1009.71 1010.02 1010.31 1010.60 1010.89 1011.19 1011.51 1011.85 1012.20 1012.57 1012.95 1013.32
1008.56 1008.41 1008.20 1007.93 1007.61 1007.27 1006.92 1006.58 1006.25 1005.96 1005.70 1005.49 1005.32 1005.20 1005.11 1005.07 1005.06 1005.10 1005.18 1005.30 1005.48 1005.69 1005.95 1006.25 1006.59 1006.95 1007.33 1007.71 1008.09 1008.46 1008.80 1009.13 1009.43 1009.72 1010.00 1010.27 1010.56 1010.86 1011.19 1011.54 1011.91 1012.31 1012.71 1013.11
1008.18 1007.98 1007.72 1007.43 1007.11 1006.77 1006.43 1006.10 1005.79 1005.51 1005.26 1005.04 1004.86 1004.72 1004.62 1004.55 1004.54 1004.56 1004.64 1004.77 1004.96 1005.20 1005.49 1005.82 1006.19 1006.58 1006.98 1007.38 1007.77 1008.14 1008.48 1008.79 1009.09 1009.36 1009.63 1009.90 1010.18 1010.48 1010.82 1011.18 1011.58 1011.99 1012.42 1012.83
Thickness
5718 5720 5719 5719 5719 5719 5720 5726 5723 5730 5733 5744 5753 5755 5757 5757 5756 5753 5751 5749 5748 5744 5742 5738 5735 5731 5727 5723 5718 5714 5708 5703 5699 5696 5691 5687 5684 5681 5678 5674 5672 5669 5666 5664
5714 5719 5718 5716 5722 5722 5722 5726 5727 5729 5734 5753 5757 5757 5756 5756 5754 5751 5751 5750 5749 5747 5743 5738 5735 5730 5725 5721 5718 5714 5708 5703 5698 5694 5690 5686 5683 5681 5678 5674 5672 5670 5667 5664
5708 5715 5713 5710 5724 5725 5726 5731 5729 5727 5739 5751 5749 5750 5753 5756 5754 5752 5752 5751 5748 5747 5743 5741 5737 5732 5726 5722 5718 5713 5708 5703 5698 5694 5690 5686 5683 5681 5677 5674 5672 5669 5667 5664
5706 5706 5692 5721 5737 5732 5727 5731 5737 5737 5742 5746 5747 5752 5755 5757 5755 5754 5752 5750 5748 5746 5744 5741 5738 5733 5728 5722 5717 5712 5707 5702 5697 5693 5689 5685 5682 5679 5677 5676 5672 5669 5666 5664
5701 5696 5703 5721 5730 5727 5722 5726 5738 5737 5740 5743 5746 5747 5752 5756 5756 5755 5753 5751 5748 5746 5743 5739 5735 5731 5725 5720 5715 5710 5705 5701 5697 5692 5687 5684 5681 5678 5677 5675 5672 5670 5667 5663
5696 5688 5689 5715 5729 5732 5724 5719 5736 5736 5736 5737 5738 5736 5745 5753 5751 5750 5749 5747 5743 5741 5739 5734 5731 5727 5722 5717 5712 5707 5702 5699 5695 5691 5686 5683 5680 5677 5675 5673 5670 5669 5667 5664
5691 5690 5703 5722 5724 5722 5706 5714 5729 5731 5732 5732 5732 5739 5744 5746 5746 5745 5742 5740 5738 5736 5733 5729 5726 5722 5718 5714 5709 5705 5700 5696 5692 5688 5685 5681 5678 5676 5673 5671 5669 5668 5665 5663
5692 5686 5696 5719 5716 5712 5716 5726 5725 5726 5728 5728 5731 5735 5737 5738 5737 5736 5734 5733 5732 5729 5726 5724 5722 5718 5715 5709 5706 5701 5696 5692 5688 5685 5682 5679 5675 5672 5671 5668 5666 5665 5663 5661
5699 5702 5712 5714 5713 5715 5717 5717 5719 5720 5723 5724 5726 5728 5730 5732 5733 5731 5730 5727 5726 5724 5720 5717 5716 5714 5710 5704 5701 5696 5692 5688 5685 5682 5678 5675 5672 5669 5667 5665 5664 5662 5660 5657
5691 5702 5705 5706 5708 5709 5710 5710 5714 5716 5717 5720 5721 5724 5725 5727 5727 5726 5724 5723 5720 5718 5716 5712 5710 5708 5706 5701 5697 5693 5688 5685 5682 5678 5675 5672 5667 5666 5663 5661 5659 5657 5655 5653
5683 5693 5695 5699 5700 5701 5703 5705 5708 5711 5713 5714 5716 5719 5721 5722 5722 5722 5719 5717 5716 5714 5712 5709 5705 5702 5699 5696 5693 5689 5686 5682 5678 5674 5671 5666 5662 5657 5656 5652 5650 5648 5648 5647
5675 5685 5683 5689 5694 5695 5694 5696 5700 5702 5706 5709 5711 5713 5715 5717 5718 5717 5715 5713 5711 5710 5708 5706 5701 5697 5694 5690 5688 5686 5682 5678 5674 5669 5665 5662 5658 5651 5643 5642 5638 5636 5635 5635
5672 5675 5676 5681 5684 5686 5687 5690 5692 5695 5699 5702 5705 5708 5709 5710 5711 5711 5710 5708 5707 5705 5703 5701 5696 5693 5689 5686 5683 5681 5677 5673 5668 5665 5661 5657 5654 5650 5645 5637 5632 5630 5628 5626
5661 5661 5663 5669 5672 5676 5678 5682 5685 5689 5693 5696 5699 5700 5702 5703 5704 5704 5704 5704 5702 5700 5697 5694 5690 5687 5685 5681 5677 5674 5671 5665 5662 5658 5655 5652 5649 5646 5643 5639 5636 5630 5624 5619
5650 5650 5653 5658 5661 5664 5668 5672 5675 5679 5684 5687 5690 5691 5693 5694 5696 5697 5697 5696 5694 5692 5690 5687 5684 5681 5678 5674 5671 5667 5664 5659 5656 5652 5649 5646 5642 5639 5636 5632 5630 5626 5623 5617
5637 5639 5642 5645 5649 5654 5657 5661 5664 5669 5673 5676 5679 5682 5685 5687 5688 5688 5688 5687 5685 5684 5682 5680 5677 5674 5670 5667 5663 5659 5655 5650 5647 5645 5641 5638 5634 5631 5628 5624 5622 5619 5615 5611
5622 5626 5629 5633 5637 5642 5646 5651 5655 5659 5664 5667 5671 5673 5675 5676 5677 5678 5677 5677 5677 5677 5675 5672 5669 5665 5661 5658 5655 5651 5647 5641 5636 5635 5633 5630 5626 5623 5619 5616 5612 5609 5605 5599
5612 5614 5617 5621 5625 5630 5635 5640 5645 5649 5653 5658 5661 5663 5665 5666 5668 5669 5668 5667 5666 5665 5665 5663 5660 5655 5651 5648 5646 5643 5639 5635 5631 5628 5624 5620 5617 5614 5610 5607 5603 5599 5594 5590
5600 5602 5606 5609 5613 5618 5624 5629 5634 5638 5643 5647 5650 5653 5655 5657 5659 5658 5657 5656 5655 5654 5653 5652 5647 5645 5641 5638 5635 5632 5630 5626 5622 5618 5614 5608 5606 5604 5601 5597 5594 5590 5586 5582
5587 5591 5594 5598 5602 5607 5612 5617 5622 5626 5631 5635 5639 5642 5644 5646 5647 5647 5645 5645 5646 5647 5644 5640 5636 5634 5631 5626 5622 5622 5619 5616 5612 5608 5604 5601 5597 5594 5590 5587 5583 5579 5576 5573
5576 5579 5582 5586 5590 5595 5600 5605 5610 5614 5619 5622 5626 5630 5633 5634 5634 5634 5633 5633 5633 5632 5630 5626 5625 5622 5619 5615 5610 5610 5607 5604 5601 5597 5594 5590 5587 5583 5580 5576 5572 5569 5565 5562
5564 5568 5572 5576 5580 5584 5588 5593 5598 5602 5606 5609 5613 5617 5619 5620 5620 5620 5621 5621 5620 5616 5616 5614 5613 5609 5606 5602 5599 5597 5594 5592 5588 5585 5582 5579 5576 5572 5569 5565 5561 5557 5554 5550
5553 5557 5560 5564 5568 5572 5576 5580 5585 5589 5593 5596 5599 5603 5605 5607 5607 5607 5607 5607 5606 5603 5604 5602 5600 5595 5591 5589 5587 5584 5581 5578 5575 5573 5570 5567 5564 5561 5557 5553 5550 5546 5542 5539
5542 5546 5549 5553 5556 5560 5564 5568 5571 5575 5579 5582 5586 5589 5591 5592 5593 5594 5595 5593 5592 5590 5590 5587 5584 5581 5578 5577 5574 5571 5568 5565 5562 5559 5557 5554 5551 5548 5544 5541 5538 5534 5531 5527
5530 5534 5537 5540 5545 5548 5552 5555 5558 5561 5565 5569 5573 5575 5577 5578 5580 5581 5581 5580 5579 5577 5576 5572 5570 5568 5566 5564 5561 5558 5555 5551 5549 5546 5543 5540 5537 5534 5531 5528 5525 5522 5518 5515
5519 5523 5526 5529 5532 5535 5539 5542 5545 5549 5552 5556 5559 5561 5563 5564 5565 5565 5566 5566 5566 5564 5563 5560 5557 5554 5553 5551 5548 5545 5541 5538 5534 5532 5530 5527 5525 5522 5519 5516 5512 5509 5506 5502
5509 5512 5515 5518 5522 5525 5528 5531 5534 5537 5540 5543 5546 5548 5549 5550 5551 5551 5551 5552 5552 5550 5549 5547 5545 5542 5540 5537 5534 5531 5528 5526 5523 5520 5517 5514 5512 5509 5506 5503 5500 5496 5493 5489